Wind_Speed
29 30 31 32 33 34 35 36 37 38 38 39 40 40 40 40 40 41 41 42 43 44 44 45 46 46 47 48 48 48 48 48 48 49 49 50 50 50 51 52 53 54
31 31 31 32 33 34 35 36 37 38 39 40 40 40 40 40 40 40 40 40 41 41 41 42 42 42 43 44 45 45 46 45 45 45 45 44 45 45 46 47 47 48
35 35 35 35 35 36 37 37 38 38 39 39 40 40 40 40 40 40 40 40 40 40 40 40 40 40 41 41 42 42 43 43 44 43 43 43 43 44 44 45 45 45
36 36 36 36 36 37 37 37 38 38 39 39 39 39 40 40 40 40 40 40 40 40 40 40 40 40 40 40 40 41 41 42 42 42 43 43 43 44 44 45 45 46
39 38 38 38 38 37 37 37 38 38 38 39 39 39 40 40 40 40 40 40 40 40 40 40 40 40 40 40 41 42 42 42 42 42 43 43 43 43 44 44 45 46
42 41 41 41 41 41 40 39 39 39 39 39 39 40 40 40 41 41 41 41 41 41 41 41 41 41 42 42 43 43 44 44 44 44 45 44 44 44 44 45 45 46
45 45 44 44 44 44 44 44 43 42 42 42 42 42 42 42 42 42 42 43 43 43 43 44 44 44 44 45 46 46 47 47 47 48 48 47 47 47 47 47 47 47
46 47 47 47 47 47 47 47 47 47 47 46 46 46 46 46 46 46 46 46 46 46 47 47 47 48 48 48 49 49 49 50 50 50 51 50 50 50 49 50 49 49
46 46 47 47 48 48 48 48 48 49 49 50 50 50 50 50 50 50 50 50 51 51 51 51 52 52 52 53 53 53 54 54 55 55 55 55 55 55 54 55 55 54
45 46 46 47 47 48 48 48 49 49 49 50 50 51 52 52 53 53 54 54 55 55 56 56 56 57 57 57 58 58 59 59 59 59 59 59 59 59 60 60 60 59
43 44 45 46 47 47 47 47 47 47 48 49 49 50 50 51 51 52 53 53 54 54 55 55 55 55 56 56 56 57 58 58 59 59 59 59 59 59 59 60 60 60
43 43 44 44 45 46 47 47 47 46 46 47 47 48 48 49 49 49 49 50 51 51 51 51 51 51 51 52 52 53 54 54 55 56 56 57 57 57 57 57 57 57
42 42 42 43 44 44 45 46 46 47 46 46 46 46 46 46 47 47 47 47 48 48 49 49 49 49 49 50 50 50 51 51 51 52 52 53 53 54 54 54 55 55
41 41 41 41 42 43 43 44 45 46 46 46 46 45 45 45 45 46 46 46 47 47 47 48 48 49 49 48 49 48 48 49 49 49 49 49 50 50 51 52 53 53
40 39 39 39 40 41 41 42 43 44 44 44 45 45 46 45 45 46 45 46 46 46 47 47 47 47 47 47 47 48 48 48 47 48 48 48 49 49 50 50 51 52
39 38 38 38 38 39 39 40 40 41 42 42 43 43 44 44 45 45 45 45 45 46 46 46 46 46 46 46 46 47 47 47 47 47 48 48 49 49 49 49 50 50
39 37 36 36 36 36 37 37 37 38 38 39 40 41 42 42 43 43 44 44 44 44 45 45 45 46 46 46 46 46 46 47 47 47 47 48 48 48 48 48 48 49
38 37 35 34 34 34 34 35 35 35 36 36 37 39 39 40 41 42 42 42 42 43 43 44 44 44 44 45 45 45 46 47 47 47 48 47 47 47 47 48 48 48
38 36 35 33 33 32 32 33 33 34 34 34 35 36 37 38 39 40 40 41 41 41 41 42 42 42 42 43 43 43 44 46 46 46 46 46 46 46 47 47 48 48
37 35 34 33 32 31 31 32 32 32 33 33 33 34 34 35 36 37 38 39 39 39 39 39 40 40 40 40 41 41 42 44 44 43 43 44 44 45 45 46 46 47
36 34 33 32 31 30 30 31 31 31 31 31 32 32 33 34 34 35 35 36 36 36 36 37 37 37 37 38 38 39 40 41 42 40 40 41 42 43 44 44 45 45
35 34 32 31 31 30 30 30 30 30 30 30 30 31 31 32 32 33 33 33 33 33 33 33 34 34 34 35 35 36 37 38 38 38 38 38 39 40 41 42 43 43
35 33 32 31 30 29 29 29 29 29 29 29 29 29 29 30 30 30 30 30 30 30 30 30 30 31 32 32 33 34 34 35 36 36 36 36 37 38 39 40 40 40
33 33 32 31 30 29 29 29 28 28 28 28 27 27 26 26 27 27 28 28 28 28 27 28 28 29 30 31 31 32 33 34 35 35 35 35 36 38 38 38 37 38
32 31 31 30 29 29 29 28 27 26 26 26 25 25 24 24 24 25 26 26 26 26 26 27 27 28 29 29 30 31 32 33 34 35 36 36 37 37 36 35 35 36
31 30 30 30 29 28 28 27 25 24 24 23 23 23 23 22 23 23 24 25 25 25 26 26 27 27 28 28 29 30 32 34 35 36 37 38 39 37 34 34 35 36
Wind_Direction
272 271 270 269 269 268 268 267 267 266 266 265 264 264 263 262 261 261 261 262 262 263 263 263 264 264 263 262 261 260 259 259 260 261 263 265 266 267 267 268 267 267
277 275 273 272 271 270 270 269 268 268 267 267 267 266 266 265 264 263 263 263 263 263 263 263 263 264 264 264 264 263 261 260 259 259 260 261 263 264 265 266 267 268
278 277 276 274 273 271 270 269 268 267 267 266 266 266 266 266 265 265 264 264 263 263 262 262 262 262 262 262 262 262 262 261 261 259 259 259 259 261 262 264 265 266
278 277 275 274 273 272 270 269 268 267 266 266 266 266 265 265 265 264 264 263 263 263 262 262 262 261 261 261 261 261 261 261 261 261 260 259 259 259 260 262 263 264
278 277 275 274 272 271 270 268 267 266 265 265 265 264 264 264 263 263 263 262 261 261 261 261 261 262 262 262 262 262 262 262 262 262 262 261 261 260 260 261 261 262
278 276 275 273 272 271 270 269 268 267 266 265 265 264 264 263 263 262 262 261 261 261 260 260 260 261 261 262 262 262 263 263 263 263 263 263 262 262 262 261 262 262
277 276 275 273 271 269 268 268 268 268 267 266 265 265 264 263 262 262 262 261 261 261 261 261 261 262 262 262 262 263 263 263 263 263 263 263 263 264 264 264 263 264
275 275 275 274 273 270 268 267 266 266 266 266 266 266 265 265 264 263 262 261 261 261 261 262 262 263 263 263 263 263 263 263 263 264 264 263 263 263 264 265 265 265
277 277 276 276 275 275 273 271 269 268 266 265 265 266 266 266 266 265 264 264 263 262 262 262 263 263 263 263 264 264 264 264 265 265 265 265 264 264 265 265 266 266
279 279 278 277 277 276 276 275 275 273 272 270 268 268 267 267 266 266 266 265 264 264 263 263 263 263 263 263 264 264 265 265 265 265 265 265 265 265 265 266 267 267
281 279 278 278 278 277 277 277 276 275 275 274 273 272 271 270 269 269 268 268 268 267 267 266 266 266 266 265 266 266 265 266 266 266 266 266 266 266 266 266 266 266
282 281 279 278 277 277 277 277 276 276 275 274 274 273 273 273 272 271 271 270 270 271 271 270 270 270 269 269 269 268 268 268 267 267 267 266 266 266 266 266 266 266
281 281 280 280 278 277 276 276 275 275 275 275 274 273 272 272 272 272 271 271 270 270 270 270 270 270 269 269 269 268 268 268 268 267 267 266 266 266 266 266 266 266
282 281 280 279 278 278 277 276 275 275 275 275 274 274 273 272 271 270 270 270 270 269 269 269 268 268 268 268 268 268 268 267 267 267 267 267 266 266 266 266 266 266
285 283 282 280 279 277 277 276 275 275 275 275 274 274 274 273 272 272 271 270 270 270 270 270 269 269 269 269 269 268 268 268 268 268 268 268 267 267 267 267 267 267
290 288 285 282 280 278 277 276 275 274 274 275 275 275 275 274 274 273 273 272 271 271 271 271 271 271 271 270 270 270 269 269 269 269 269 269 269 268 268 268 268 268
293 291 288 285 282 280 278 277 276 275 274 274 275 275 275 275 275 275 274 274 273 272 272 272 271 271 272 272 272 272 271 270 270 270 270 270 270 269 269 268 267 267
294 292 289 286 284 282 280 279 278 277 276 276 275 275 275 276 276 276 275 275 274 274 273 272 272 271 271 271 271 272 272 271 271 271 271 271 270 270 270 269 268 268
295 293 291 288 286 284 282 281 280 280 279 278 277 277 276 276 276 276 276 276 275 275 274 273 272 272 271 271 271 271 271 270 270 271 271 271 271 271 270 270 270 269
294 292 291 289 288 286 284 283 282 281 280 280 279 279 278 277 277 277 276 276 276 276 275 275 274 273 273 272 272 272 272 271 271 271 272 272 271 271 271 271 270 270
293 292 290 289 288 287 286 285 283 283 282 282 282 281 280 280 279 278 278 277 277 276 276 276 275 275 274 274 273 273 273 273 273 273 273 273 273 272 272 272 272 272
291 290 289 288 288 287 286 286 285 284 284 284 284 283 282 281 280 279 279 278 277 277 276 276 277 276 276 276 275 275 275 275 275 274 275 275 275 274 274 274 274 274
289 289 288 288 287 287 286 286 286 286 286 285 285 283 282 282 281 280 280 279 279 278 278 278 278 278 278 278 277 277 277 277 276 276 276 276 276 275 275 276 276 277
287 287 287 287 287 286 285 286 286 286 286 285 284 282 281 281 281 281 281 281 280 280 280 280 280 279 279 279 279 279 279 278 278 277 277 276 276 275 276 277 278 279
286 286 287 287 287 286 285 286 286 285 284 284 282 282 281 281 281 281 281 281 281 281 281 281 280 280 280 280 281 281 281 280 279 279 279 278 277 277 279 281 280 280
287 287 287 287 286 287 287 286 285 284 283 282 281 282 282 282 282 282 282 283 283 283 283 283 282 282 283 283 284 283 283 283 283 283 282 281 281 282 284 284 282 280
Height
2997 2996 2994 2993 2993 2992 2992 2991 2990 2990 2990 2989 2989 2989 2989 2989 2989 2989 2989 2989 2989 2989 2989 2989 2988 2988 2988 2987 2987 2986 2986 2986 2986 2987 2987 2988 2989 2990 2990 2991 2992 2992
2993 2992 2991 2989 2989 2988 2987 2987 2986 2985 2985 2984 2984 2984 2983 2983 2983 2983 2983 2983 2983 2983 2983 2983 2983 2983 2983 2983 2983 2982 2982 2981 2980 2980 2980 2981 2982 2982 2983 2984 2984 2985
2989 2987 2986 2985 2984 2983 2982 2982 2981 2980 2980 2979 2979 2978 2978 2978 2977 2977 2977 2977 2977 2977 2977 2977 2977 2977 2977 2977 2977 2977 2977 2976 2976 2976 2975 2975 2975 2975 2976 2977 2977 2978
2983 2982 2980 2979 2978 2978 2977 2976 2976 2975 2974 2974 2973 2973 2972 2972 2972 2972 2972 2972 2972 2972 2972 2972 2971 2971 2971 2971 2971 2971 2971 2971 2971 2971 2970 2970 2969 2969 2969 2970 2970 2971
2979 2977 2975 2974 2973 2972 2972 2971 2970 2969 2969 2968 2967 2967 2966 2966 2966 2966 2966 2966 2966 2966 2966 2966 2966 2966 2965 2965 2965 2965 2965 2965 2965 2965 2964 2964 2964 2963 2963 2963 2963 2964
2972 2971 2970 2969 2968 2967 2966 2966 2965 2964 2963 2962 2961 2961 2961 2960 2960 2960 2960 2960 2960 2959 2959 2960 2960 2960 2959 2959 2959 2959 2959 2958 2959 2958 2958 2958 2958 2957 2957 2957 2957 2957
2966 2964 2963 2962 2962 2962 2961 2960 2959 2958 2958 2957 2956 2955 2955 2954 2954 2954 2953 2953 2953 2953 2953 2953 2953 2953 2953 2953 2953 2952 2952 2952 2952 2952 2952 2952 2951 2951 2951 2950 2950 2950
2959 2958 2956 2955 2954 2954 2953 2953 2952 2951 2951 2950 2949 2949 2948 2948 2947 2947 2947 2947 2946 2946 2946 2946 2946 2946 2945 2945 2945 2945 2945 2945 2945 2945 2944 2945 2944 2944 2944 2943 2943 2944
2953 2951 2950 2949 2947 2946 2945 2945 2944 2944 2943 2942 2942 2941 2941 2940 2940 2940 2939 2939 2939 2939 2939 2939 2938 2938 2938 2938 2937 2937 2937 2937 2937 2937 2937 2937 2937 2937 2937 2936 2935 2936
2946 2945 2943 2942 2941 2939 2938 2937 2936 2935 2935 2934 2934 2934 2933 2933 2932 2932 2931 2931 2931 2931 2931 2931 2930 2930 2930 2930 2929 2929 2929 2929 2928 2928 2928 2928 2928 2928 2928 2927 2926 2927
2939 2938 2936 2935 2934 2932 2931 2930 2929 2928 2927 2926 2926 2926 2925 2925 2924 2924 2923 2923 2922 2922 2922 2921 2921 2921 2921 2920 2920 2919 2919 2919 2919 2918 2919 2919 2919 2919 2919 2918 2917 2918
2933 2931 2929 2928 2927 2925 2924 2922 2921 2920 2920 2919 2918 2918 2917 2917 2916 2916 2915 2915 2914 2913 2913 2912 2912 2912 2911 2911 2911 2910 2910 2910 2909 2910 2910 2910 2910 2910 2909 2908 2908 2909
2926 2925 2923 2921 2919 2918 2916 2915 2914 2913 2912 2911 2910 2910 2909 2909 2908 2908 2907 2907 2906 2906 2905 2905 2904 2904 2903 2903 2902 2902 2902 2901 2901 2901 2901 2902 2902 2901 2900 2900 2899 2899
2919 2918 2916 2914 2912 2911 2909 2908 2907 2906 2905 2904 2903 2903 2902 2902 2901 2901 2900 2900 2899 2898 2898 2897 2897 2896 2896 2895 2894 2894 2894 2894 2894 2894 2894 2893 2893 2893 2892 2891 2891 2891
2912 2911 2909 2907 2906 2904 2903 2901 2900 2899 2898 2897 2896 2895 2895 2894 2894 2893 2893 2893 2892 2891 2890 2890 2889 2889 2888 2887 2887 2886 2886 2886 2886 2886 2885 2885 2884 2884 2884 2883 2883 2883
2905 2903 2902 2900 2899 2897 2896 2895 2894 2893 2892 2891 2890 2889 2888 2887 2886 2886 2885 2885 2884 2884 2883 2882 2882 2881 2880 2879 2879 2878 2878 2878 2878 2877 2877 2876 2876 2876 2875 2875 2875 2874
2897 2896 2894 2893 2892 2890 2889 2888 2887 2886 2885 2884 2883 2882 2881 2880 2880 2879 2878 2878 2877 2876 2876 2875 2874 2874 2873 2872 2871 2870 2869 2869 2870 2870 2869 2868 2868 2867 2867 2867 2867 2867
2891 2889 2888 2886 2885 2884 2883 2882 2881 2880 2879 2878 2877 2876 2875 2874 2874 2873 2872 2871 2871 2870 2869 2868 2868 2867 2866 2865 2864 2863 2861 2862 2862 2862 2861 2861 2860 2860 2859 2859 2859 2859
2885 2883 2882 2880 2879 2878 2877 2875 2874 2874 2873 2872 2871 2870 2869 2868 2868 2867 2866 2865 2865 2863 2862 2862 2861 2860 2859 2858 2858 2856 2855 2855 2856 2855 2854 2853 2853 2852 2852 2851 2851 2851
2879 2877 2876 2874 2873 2872 2871 2869 2868 2867 2867 2866 2865 2864 2863 2862 2862 2861 2860 2859 2859 2857 2856 2855 2854 2853 2853 2852 2851 2850 2848 2848 2849 2849 2847 2846 2845 2845 2844 2844 2843 2843
2873 2872 2870 2869 2867 2866 2865 2864 2863 2861 2860 2860 2859 2858 2857 2856 2855 2855 2854 2853 2852 2851 2850 2849 2848 2847 2846 2845 2845 2843 2842 2842 2843 2842 2841 2839 2839 2838 2837 2836 2836 2835
2868 2866 2865 2864 2862 2861 2860 2858 2857 2856 2855 2854 2853 2852 2851 2850 2849 2849 2848 2847 2846 2845 2844 2844 2843 2841 2840 2840 2839 2837 2837 2836 2836 2835 2835 2833 2832 2831 2830 2830 2829 2828
2862 2861 2860 2859 2857 2856 2855 2853 2852 2851 2849 2848 2848 2846 2845 2844 2844 2843 2842 2842 2841 2840 2840 2839 2838 2836 2835 2834 2833 2832 2831 2831 2830 2829 2829 2828 2826 2825 2824 2824 2823 2822
2857 2856 2854 2853 2852 2851 2850 2848 2847 2846 2844 2843 2842 2841 2841 2840 2839 2838 2837 2837 2836 2836 2835 2834 2833 2832 2831 2829 2828 2827 2826 2826 2825 2824 2823 2822 2821 2820 2819 2819 2818 2816
2852 2850 2849 2848 2847 2846 2845 2843 2842 2841 2840 2839 2838 2837 2837 2836 2835 2834 2833 2832 2832 2831 2830 2830 2828 2827 2826 2825 2824 2823 2821 2820 2819 2818 2817 2816 2815 2815 2814 2814 2813 2811
2846 2845 2844 2843 2842 2841 2840 2838 2838 2837 2835 2834 2833 2833 2833 2832 2831 2831 2830 2829 2828 2827 2826 2825 2824 2823 2822 2821 2819 2818 2816 2814 2813 2812 2811 2809 2808 2809 2809 2808 2806 2805